Beaufort, NC

6:38 AM EDT on May 26, 2017 (GMT -0400)
Smith

Weather History for KMRH - February, 2013

Change the Weather History Date:

Wednesday, February 27, 2013

  Actual Average Record
Temperature  
Mean Temperature 54 °F -  
Max Temperature 57 °F 57 °F 74 °F (1976)
Min Temperature 51 °F 36 °F 16 °F (1967)
Degree Days  
Heating Degree Days 11    
Growing Degree Days 4 (Base 50)    
Moisture  
Dew Point 48 °F    
Average Humidity 82    
Maximum Humidity 100    
Minimum Humidity 66    
Precipitation  
Precipitation 0.00 in - - ()
Sea Level Pressure  
Sea Level Pressure 29.72 in    
Wind  
Wind Speed 10 mph (WSW)    
Max Wind Speed 18 mph    
Max Gust Speed 26 mph    
Visibility 8 miles    
Events      
Averages and records for this station are not official NWS values.
T = Trace of Precipitation, MM = Missing Value Source: NWS Daily Summary

Daily Weather History Graph

Daily Weather History Graph

Search for Another Location

Airport or City:

Trip Planner

Search our weather history database for the weather conditions in past years. The results will help you decide how hot, cold, wet, or windy it might be!

Date:

Astronomy

Feb. 27, 2013 Rise Set
Actual Time 6:38 AM EST 6:00 PM EST
Civil Twilight 6:12 AM EST 6:26 PM EST
Nautical Twilight 5:43 AM EST 6:55 PM EST
Astronomical Twilight 5:14 AM EST 7:24 PM EST
Moon 8:11 PM EST (2/27) 7:18 AM EST (2/27)
Length of Visible Light 12h 13m
Length of Day
11h 22m
Waning Gibbous, 96% of the Moon is Illuminated
Feb 27
Waning Gibbous
Mar 4
Last Quarter
Mar 11
New
Mar 19
First Quarter
Mar 27
Full

Hourly Weather History & Observations

Time (EST) Temp. Dew Point Humidity Pressure Visibility Wind Dir Wind Speed Gust Speed Precip Events Conditions
12:09 AM 57.2 °F 57.2 °F 100% 29.63 in 4.0 mi SW 10.4 mph - N/A   Overcast
12:58 AM 57.0 °F 55.9 °F 96% 29.63 in 4.0 mi SW 8.1 mph - N/A   Mostly Cloudy
1:13 AM 57.2 °F 55.4 °F 94% 29.63 in 4.0 mi WSW 8.1 mph - N/A   Mostly Cloudy
1:24 AM 55.4 °F 55.4 °F 100% 29.64 in 4.0 mi WSW 8.1 mph - N/A   Overcast
1:58 AM 55.9 °F 55.0 °F 97% 29.64 in 4.0 mi SW 4.6 mph - N/A   Mostly Cloudy
2:17 AM 55.4 °F 53.6 °F 94% 29.63 in 3.0 mi SW 4.6 mph - N/A   Overcast
2:55 AM 55.4 °F 53.6 °F 94% 29.65 in 2.5 mi WSW 6.9 mph - N/A   Overcast
2:58 AM 55.9 °F 54.0 °F 93% 29.65 in 3.0 mi WSW 6.9 mph - N/A   Mostly Cloudy
3:14 AM 55.4 °F 55.4 °F 100% 29.64 in 5.0 mi WSW 5.8 mph - N/A   Scattered Clouds
3:58 AM 55.0 °F 54.0 °F 96% 29.66 in 4.0 mi WSW 8.1 mph - N/A   Partly Cloudy
4:58 AM 54.0 °F 50.0 °F 86% 29.69 in 8.0 mi West 8.1 mph - N/A   Clear
5:58 AM 53.1 °F 46.0 °F 77% 29.72 in 10.0 mi West 12.7 mph 19.6 mph N/A   Clear
6:58 AM 51.1 °F 42.1 °F 71% 29.73 in 10.0 mi WSW 11.5 mph - N/A   Clear
7:58 AM 52.0 °F 42.1 °F 69% 29.76 in 10.0 mi West 18.4 mph 25.3 mph N/A   Clear
8:58 AM 52.0 °F 41.0 °F 66% 29.78 in 10.0 mi West 18.4 mph 26.5 mph N/A   Clear
9:58 AM 53.1 °F 43.0 °F 69% 29.79 in 10.0 mi West 16.1 mph - N/A   Clear
10:58 AM 54.0 °F 44.1 °F 69% 29.81 in 10.0 mi West 12.7 mph - N/A   Clear
12:58 PM 55.0 °F 44.1 °F 67% 29.78 in 10.0 mi WSW 13.8 mph - N/A   Clear
1:58 PM 55.9 °F 45.0 °F 67% 29.77 in 10.0 mi SSW 15.0 mph - N/A   Clear
2:58 PM 55.0 °F 46.0 °F 72% 29.77 in 10.0 mi SW 17.3 mph - N/A   Clear
3:58 PM 54.0 °F 44.1 °F 69% 29.76 in 10.0 mi SW 15.0 mph - N/A   Clear
4:58 PM 54.0 °F 45.0 °F 72% 29.77 in 10.0 mi SW 15.0 mph - N/A   Clear
5:58 PM 53.1 °F 45.0 °F 74% 29.77 in 10.0 mi SW 16.1 mph - N/A   Clear
6:58 PM 52.0 °F 45.0 °F 77% 29.78 in 10.0 mi SW 12.7 mph - N/A   Clear
7:58 PM 52.0 °F 46.0 °F 80% 29.78 in 10.0 mi WSW 13.8 mph - N/A   Clear
8:58 PM 52.0 °F 46.0 °F 80% 29.77 in 10.0 mi WSW 12.7 mph - N/A   Clear
9:58 PM 52.0 °F 46.0 °F 80% 29.77 in 10.0 mi WSW 12.7 mph - N/A   Clear
10:58 PM 52.0 °F 46.9 °F 83% 29.76 in 10.0 mi WSW 10.4 mph - N/A   Clear